[[{"header":{"parameterUnit":"m.s-1","parameterCategory":1,"la1":30.2991,"la2":30.254,"lo1":-89.0895,"lo2":-89.0444,"dy":0.0017,"dx":0.0017,"nx":28,"ny":28,"refTime":"2024-04-17T21:00:00:Z","depth":0,"parameterNumber":2,"parameterNumberName":"U-component_of_WINDS"},"data":[0,0,0,0,0,0,0,0,0,0,0,0,0,0,0,0,0,0,0,0,0,0,0,0,0,0,0,0,0,0,0,0,0,0,0,0,0,0,0,0,0,0,0,0,0,0,0,0,0,0,0,0,0,0,0,0,0,0,-0.5093,-0.5093,0,-0.5087,-0.5087,-0.5086,-0.5081,-0.5081,-0.5081,-0.5081,-0.5074,-0.5074,-0.5074,0,0,0,0,0,0,0,0,0,0,0,0,0,-0.5103,-0.5102,-0.5093,-0.5093,-0.5093,-0.5087,-0.5087,-0.5086,-0.5081,-0.5081,-0.5081,-0.5081,-0.5074,-0.5074,-0.5074,0,0,0,0,0,0,0,0,0,0,0,0,0,-0.5098,-0.5102,-0.5094,-0.509,-0.5089,-0.5087,-0.5087,-0.5086,-0.5081,-0.5081,-0.5081,-0.5081,-0.5074,-0.5074,-0.5074,-0.5074,0,0,-0.5073,-0.5073,0,0,0,0,0,0,0,0,-0.5098,-0.5097,-0.509,-0.509,-0.5089,-0.5084,-0.5087,-0.5082,-0.5081,-0.5084,-0.5081,-0.5081,-0.5078,-0.5077,-0.5076,-0.5074,-0.5074,-0.5073,-0.5073,-0.5073,-0.5073,0,0,0,0,0,0,0,-0.5098,-0.5097,-0.5091,-0.509,-0.509,-0.5089,-0.5088,-0.5086,-0.5081,-0.5084,-0.5083,-0.5083,-0.5077,-0.5076,-0.5076,-0.5074,-0.5073,-0.5073,-0.5073,-0.5073,-0.5072,-0.5073,0,0,0,0,0,0,-0.5099,-0.5098,-0.5091,-0.5091,-0.5094,-0.5089,-0.5088,-0.5086,-0.5081,-0.5081,-0.5083,-0.5082,-0.5077,-0.5076,-0.5076,-0.5076,-0.5073,-0.5073,-0.5073,-0.5072,-0.5072,-0.5073,0,0,0,0,0,0,-0.5099,-0.5098,-0.5091,-0.5094,-0.5093,-0.5088,-0.5087,-0.5086,-0.5085,-0.5081,-0.508,-0.5082,-0.5076,-0.5076,-0.5075,-0.5076,-0.5073,-0.5072,-0.5072,-0.5072,-0.5073,-0.5077,0,0,0,0,0,0,-0.51,-0.5099,-0.5098,-0.5094,-0.5093,-0.509,-0.5087,-0.5086,-0.5085,-0.5084,-0.508,-0.5079,-0.5076,-0.5075,-0.5075,-0.5076,-0.5072,-0.5072,-0.5072,-0.5072,-0.5077,-0.5078,-0.5078,0,0,0,0,0,-0.51,-0.51,-0.5099,-0.5098,-0.5093,-0.509,-0.509,-0.5086,-0.5085,-0.5085,-0.5082,-0.5079,-0.5076,-0.5075,-0.5074,-0.5075,-0.5072,-0.5072,-0.5072,-0.5077,-0.5078,-0.5078,0,0,0,0,0,0,-0.5105,-0.5099,-0.5098,-0.5096,-0.5094,-0.5089,-0.5089,-0.5087,-0.5085,-0.5085,-0.5081,-0.508,-0.5079,-0.5077,-0.5076,-0.5076,-0.5074,-0.5074,-0.5077,-0.5078,-0.5078,-0.5079,-0.5072,0,0,0,0,0,-0.5106,-0.5104,-0.51,-0.5099,-0.5098,-0.5094,-0.5093,-0.509,-0.5088,-0.5087,-0.5084,-0.5081,-0.508,-0.5079,-0.5077,-0.5077,-0.5076,-0.5077,-0.5078,-0.5079,-0.5079,-0.5079,-0.5079,-0.5073,-0.5073,-0.5073,0,0,-0.5108,-0.5104,-0.5104,-0.51,-0.5098,-0.5096,-0.5093,-0.5092,-0.5091,-0.5086,-0.5085,-0.5083,-0.508,-0.508,-0.508,-0.5078,-0.508,-0.5079,-0.5079,-0.5079,-0.5079,-0.508,-0.508,-0.5074,-0.5073,-0.5073,0,0,-0.511,-0.5108,-0.5107,-0.5105,-0.5102,-0.5099,-0.5099,-0.5095,-0.5094,-0.5093,-0.5089,-0.5089,-0.5086,-0.5084,-0.5083,-0.5086,-0.5083,-0.5085,-0.5088,-0.5088,-0.5089,-0.5089,-0.509,-0.5091,-0.5085,-0.5085,-0.5085,0,-0.5113,-0.5111,-0.5107,-0.5106,-0.5105,-0.5101,-0.51,-0.5099,-0.5095,-0.5094,-0.5093,-0.509,-0.5088,-0.5087,-0.5088,-0.5087,-0.5087,-0.5086,-0.5089,-0.5089,-0.509,-0.5091,-0.5091,-0.5086,-0.5086,-0.5086,-0.5086,0,-0.5114,-0.5113,-0.5113,-0.511,-0.5108,-0.5108,-0.5104,-0.5103,-0.5101,-0.5099,-0.5098,-0.5096,-0.5093,-0.5093,-0.5091,-0.5092,-0.5092,-0.509,-0.5087,-0.5091,-0.5092,-0.5092,-0.5086,-0.5086,-0.5086,-0.5086,0,0,-0.5119,-0.5115,-0.5115,-0.5113,-0.511,-0.5109,-0.5108,-0.5106,-0.5106,-0.5104,-0.5103,-0.5101,-0.51,-0.5098,-0.5096,-0.5096,-0.5099,-0.5094,-0.5094,-0.5095,-0.5101,-0.5102,-0.5103,-0.5098,-0.5098,-0.5098,-0.5101,0,-0.5121,-0.512,-0.5117,-0.5117,-0.5115,-0.5112,-0.5112,-0.511,-0.5108,-0.5107,-0.5105,-0.5104,-0.5101,-0.5101,-0.5101,-0.5099,-0.51,-0.5098,-0.5097,-0.5097,-0.5098,-0.5103,-0.5104,-0.5108,-0.5101,-0.5101,-0.5101,0,-0.5124,-0.5122,-0.5121,-0.5118,-0.5118,-0.5117,-0.5116,-0.5115,-0.5113,-0.5111,-0.511,-0.5108,-0.5107,-0.5105,-0.5105,-0.5104,-0.5103,-0.5102,-0.5102,-0.5102,-0.5099,-0.5103,-0.5108,-0.5109,-0.5102,-0.5102,-0.5102,0,-0.5127,-0.5125,-0.5124,-0.5123,-0.512,-0.512,-0.5118,-0.5116,-0.5115,-0.5114,-0.5113,-0.5112,-0.5111,-0.511,-0.5108,-0.5106,-0.5108,-0.5105,-0.5107,-0.5107,-0.5107,-0.5107,-0.5113,-0.5107,-0.5107,-0.5107,-0.5107,0,-0.513,-0.513,-0.5126,-0.5126,-0.5126,-0.5123,-0.5123,-0.5121,-0.5119,-0.5119,-0.5116,-0.5116,-0.5112,-0.5112,-0.511,-0.511,-0.511,-0.5109,-0.5108,-0.5109,-0.5109,-0.5108,-0.5108,-0.5107,-0.5107,-0.5107,-0.5107,0,-0.5134,-0.5132,-0.5131,-0.5128,-0.5127,-0.5127,-0.5125,-0.5125,-0.5123,-0.5122,-0.5122,-0.5119,-0.5118,-0.5116,-0.5114,-0.5113,-0.5114,-0.5113,-0.5115,-0.5114,-0.5116,-0.5116,-0.5121,-0.5122,-0.5116,-0.5116,-0.5116,0,-0.5136,-0.5136,-0.5133,-0.5132,-0.5131,-0.513,-0.513,-0.5127,-0.5126,-0.5124,-0.5124,-0.5123,-0.5122,-0.5121,-0.5119,-0.5118,-0.5117,-0.5119,-0.5117,-0.5118,-0.5117,-0.5117,-0.5118,-0.512,-0.512,-0.512,-0.512,0,-0.5139,-0.5138,-0.5137,-0.5136,-0.5135,-0.5134,-0.5133,-0.5132,-0.5129,-0.5129,-0.5128,-0.5127,-0.5126,-0.5125,-0.5124,-0.5123,-0.5121,-0.5121,-0.5121,-0.5122,-0.5123,-0.5122,-0.5116,-0.512,-0.512,-0.512,-0.512,-0.512,-0.5142,-0.5142,-0.514,-0.5139,-0.5138,-0.5137,-0.5137,-0.5135,-0.5135,-0.5133,-0.5132,-0.5131,-0.513,-0.5128,-0.5127,-0.5127,-0.5126,-0.5126,-0.5126,-0.5126,-0.5127,-0.5123,-0.5127,-0.5127,-0.5127,-0.5127,-0.5127,0,-0.5146,-0.5145,-0.5144,-0.5142,-0.5142,-0.514,-0.5139,-0.5138,-0.5138,-0.5137,-0.5136,-0.5135,-0.5135,-0.5133,-0.5132,-0.5132,-0.5131,-0.5132,-0.5132,-0.5132,-0.5128,-0.5128,-0.5133,-0.5133,-0.5133,-0.5133,-0.5133,-0.5133,-0.5148,-0.5147,-0.5146,-0.5146,-0.5144,-0.5144,-0.5143,-0.5143,-0.5142,-0.5141,-0.5141,-0.5139,-0.5138,-0.5137,-0.5137,-0.5136,-0.5136,-0.5137,-0.5136,-0.5133,-0.5132,-0.5132,-0.5131,-0.5137,-0.5137,-0.514,-0.5141,-0.5141]},{"header":{"parameterUnit":"m.s-1","parameterCategory":1,"la1":30.2991,"la2":30.254,"lo1":-89.0895,"lo2":-89.0444,"dy":0.0017,"dx":0.0017,"nx":28,"ny":28,"refTime":"2024-04-17T21:00:00:Z","depth":0,"parameterNumber":3,"parameterNumberName":"V-component_of_WINDS"},"data":[0,0,0,0,0,0,0,0,0,0,0,0,0,0,0,0,0,0,0,0,0,0,0,0,0,0,0,0,0,0,0,0,0,0,0,0,0,0,0,0,0,0,0,0,0,0,0,0,0,0,0,0,0,0,0,0,0,0,2.7249,2.7249,0,2.7259,2.726,2.726,2.723,2.7229,2.7228,2.7227,2.7237,2.7238,2.7239,0,0,0,0,0,0,0,0,0,0,0,0,0,2.7203,2.7204,2.7249,2.7249,2.725,2.7259,2.726,2.726,2.723,2.7229,2.7228,2.7227,2.7236,2.7237,2.7239,0,0,0,0,0,0,0,0,0,0,0,0,0,2.7219,2.7205,2.7249,2.7236,2.7235,2.7259,2.726,2.726,2.723,2.7229,2.7228,2.7226,2.7236,2.7237,2.7239,2.7277,0,0,2.7244,2.7245,0,0,0,0,0,0,0,0,2.7219,2.7221,2.7238,2.7237,2.7236,2.7242,2.7247,2.7265,2.7231,2.7232,2.7227,2.7226,2.7239,2.7241,2.7246,2.7277,2.7277,2.7244,2.7245,2.7246,2.7246,0,0,0,0,0,0,0,2.7218,2.7221,2.7253,2.7238,2.7237,2.7229,2.723,2.725,2.7243,2.7232,2.723,2.7231,2.7239,2.7244,2.7246,2.7278,2.7244,2.7246,2.7247,2.7247,2.7341,2.7342,0,0,0,0,0,0,2.7218,2.722,2.7253,2.7254,2.7224,2.7231,2.7232,2.7241,2.7243,2.7242,2.7232,2.723,2.7242,2.7244,2.7246,2.729,2.7246,2.7247,2.7248,2.7339,2.7341,2.7343,0,0,0,0,0,0,2.7217,2.7222,2.7253,2.7236,2.724,2.7233,2.7244,2.7242,2.7248,2.7243,2.7242,2.7239,2.7241,2.7243,2.7269,2.729,2.7248,2.725,2.7337,2.734,2.7342,2.7379,0,0,0,0,0,0,2.7216,2.7221,2.7236,2.7237,2.7241,2.7276,2.7245,2.7243,2.7251,2.7247,2.725,2.7249,2.724,2.7267,2.7271,2.7292,2.7251,2.7336,2.7338,2.7341,2.7376,2.7382,2.7388,0,0,0,0,0,2.7215,2.7245,2.7237,2.7241,2.7258,2.7277,2.728,2.7269,2.7253,2.7267,2.7264,2.7248,2.7287,2.727,2.7274,2.7295,2.7334,2.7338,2.7341,2.7373,2.7381,2.7388,0,0,0,0,0,0,2.7247,2.7245,2.7235,2.7268,2.7273,2.7272,2.729,2.7278,2.7288,2.7284,2.7271,2.7272,2.73,2.73,2.7281,2.7332,2.7308,2.7312,2.7331,2.7338,2.7344,2.7343,2.7252,0,0,0,0,0,2.7257,2.7273,2.7271,2.73,2.7303,2.7296,2.7304,2.7296,2.7301,2.7303,2.7302,2.7307,2.732,2.7329,2.7341,2.7376,2.7376,2.7393,2.7399,2.7403,2.7407,2.7426,2.7434,2.7354,2.7354,2.7354,0,0,2.728,2.7281,2.7292,2.7306,2.7309,2.7326,2.7298,2.7317,2.7329,2.7305,2.733,2.733,2.7334,2.7365,2.7378,2.7366,2.7429,2.7408,2.7412,2.7413,2.743,2.7438,2.7445,2.7356,2.7356,2.7355,0,0,2.7329,2.7332,2.7356,2.736,2.7365,2.7361,2.7367,2.7368,2.7367,2.7392,2.7374,2.7389,2.7412,2.7416,2.7421,2.7473,2.7459,2.7477,2.7508,2.7526,2.7532,2.7538,2.7557,2.7563,2.7481,2.7481,2.7481,0,2.7356,2.7381,2.737,2.739,2.7397,2.7377,2.7401,2.7405,2.7414,2.7419,2.7406,2.7435,2.7436,2.7468,2.7481,2.7485,2.7492,2.7477,2.7532,2.7538,2.7543,2.756,2.7568,2.7483,2.7483,2.7483,2.7483,0,2.7414,2.7431,2.745,2.746,2.7469,2.7491,2.7483,2.7494,2.7485,2.7482,2.7507,2.7509,2.7521,2.7528,2.7519,2.7558,2.755,2.7535,2.751,2.7553,2.7569,2.7576,2.7486,2.7486,2.7485,2.7484,0,0,2.7483,2.7487,2.7494,2.7499,2.7503,2.7516,2.7538,2.755,2.7559,2.7566,2.7584,2.7604,2.759,2.7596,2.7587,2.7604,2.7645,2.7586,2.7586,2.7597,2.7688,2.77,2.7708,2.7636,2.7637,2.7638,2.7688,0,2.7532,2.7569,2.756,2.7597,2.7613,2.7594,2.7613,2.7617,2.7615,2.7628,2.7625,2.764,2.762,2.7624,2.7639,2.7637,2.7663,2.7633,2.7652,2.7653,2.7651,2.7717,2.7729,2.7777,2.7694,2.7696,2.7696,0,2.7594,2.7604,2.7642,2.7645,2.7651,2.7668,2.7679,2.7692,2.7697,2.7694,2.7701,2.769,2.7711,2.7686,2.7715,2.7694,2.7702,2.7702,2.7703,2.7705,2.7677,2.772,2.7791,2.7799,2.7706,2.7705,2.7705,0,2.7641,2.7664,2.769,2.7694,2.7698,2.771,2.7712,2.7716,2.7724,2.7734,2.7739,2.775,2.7757,2.7766,2.7758,2.774,2.7788,2.7762,2.7786,2.7787,2.7797,2.7796,2.7871,2.7802,2.7802,2.7801,2.7801,0,2.7697,2.7721,2.7711,2.7727,2.7754,2.7743,2.777,2.777,2.7773,2.7789,2.7773,2.7788,2.7777,2.7791,2.7784,2.7809,2.7812,2.7811,2.7809,2.7812,2.7812,2.7817,2.7813,2.7803,2.7803,2.7802,2.7802,0,2.7754,2.7748,2.7776,2.7777,2.7778,2.7797,2.7798,2.7813,2.781,2.783,2.7834,2.7829,2.7844,2.7838,2.7854,2.785,2.7882,2.7875,2.788,2.7879,2.7903,2.7901,2.7982,2.7993,2.7917,2.7918,2.7918,0,2.779,2.7808,2.7812,2.7821,2.7824,2.784,2.7848,2.7839,2.7848,2.7856,2.7869,2.7884,2.7895,2.7921,2.7918,2.7931,2.7924,2.7952,2.7926,2.7929,2.7925,2.7924,2.7926,2.7957,2.7958,2.7959,2.796,0,2.7854,2.7851,2.7864,2.7876,2.7887,2.7896,2.7903,2.7912,2.7902,2.7914,2.793,2.7938,2.7955,2.797,2.7981,2.7982,2.797,2.7968,2.7974,2.7978,2.798,2.7979,2.7895,2.7966,2.7965,2.7965,2.7965,2.7964,2.7902,2.7918,2.7923,2.7938,2.7943,2.795,2.7964,2.7963,2.7976,2.799,2.7983,2.8002,2.8007,2.802,2.8024,2.8038,2.8027,2.8036,2.8038,2.8041,2.8044,2.7978,2.804,2.804,2.804,2.804,2.8039,0,2.7966,2.7968,2.7982,2.7994,2.8006,2.7993,2.8001,2.8012,2.8028,2.8034,2.8046,2.8064,2.8078,2.8077,2.809,2.8102,2.8096,2.8106,2.8105,2.8105,2.8053,2.8047,2.811,2.811,2.811,2.811,2.811,2.811,2.8,2.8026,2.8024,2.8052,2.8054,2.8072,2.8078,2.8085,2.809,2.8111,2.8123,2.8122,2.8126,2.8139,2.8151,2.815,2.8156,2.8168,2.8165,2.8116,2.8109,2.8102,2.8096,2.8169,2.8169,2.8216,2.8216,2.8217]}]]